ABS-2

Last updated on Nov. 19, 2019, 4:25 a.m. UTC

1 39508U 14006A   19322.44704337 -.00000082  00000-0  00000+0 0  9995
2 39508   0.0481 102.6279 0002357 183.2616   7.2105  1.00270987 21227
UTC
Height (km)
Latitude
Longitude
Inclination
Orbital Period
UTC large
Height (km)
Speed (km/s)
/
Latitude / Longitude
Inclination (degrees)
Orbital Period (minutes)
Azimuth
Elevation
Range (km)
Doppler Factor
iOS Compass Heading
iOS Angle

Next 30 passes for location: Hong Kong

Rise time Rise Azimuth (degrees) Set time Set Azimuth (degrees) Duration Max altitude (degrees)

No matching passes for this satellites